Location: Archemont
(49.1579°N, 1.7598°E)
Time: 21:23:15
(UTC+00:00)

Altair - Pass Details

Date: 17 April 2024
Orbit: 1501 x 1682 km, 47.2° (Epoch: 19 May)

Event Time Altitude Azimuth Distance (km) Brightness Sun altitude
Rises 18:40:27 0° 211° (SSW) 4,913 10.4 0.5°
Reaches altitude 10° 18:43:55 10° 204° (SSW) 3,915 9.8 0.0°
Maximum altitude 18:52:49 38° 141° (SE) 2,318 8.1 -1.4°
Drops below altitude 10° 19:01:30 10° 78° (ENE) 3,816 9.1 -2.8°
Sets 19:04:48 0° 71° (ENE) 4,777 9.6 -3.3°
